DLH9HE EDDK-LEAL

Flight info

Callsign DLH9HE
Flight time 2h 3m
Altitude 40000
Route NVO3W NVO Y868 SOGRI UM617 SISGA/N0489F430 UM617 CIV/N0486F410 N872 MEDIL DCT KOVIN DCT DUCRA UM728 RESMI UN857 DISAK DCT DIRMO DCT GUERE DCT EVPOK DCT AGN DCT ANETO DCT POSSY DCT XIMPE DCT RIMES DCT SAURA DCT TATOS DCT PLANA DCT VLC
Aircraft A359/H-SDE2E3GHIJ3J4J5LM1ORWXY/LB1D1

Departure

Time 2026-04-22 19:32
Airport Cologne Bonn Airport (EDDK)

Arrival

Time 2026-04-22 21:36
Airport Alicante-Elche Miguel Hernández Airport (LEAL)
Time Latitude Longitude Altitude Speed Heading
2026-04-22 19:05 50.87678 7.12623 236 ft 0 kts 227°
2026-04-22 19:22 50.87687 7.12639 236 ft 4 kts 227°
2026-04-22 19:22 50.87705 7.12671 236 ft 4 kts 228°
2026-04-22 19:22 50.87720 7.12705 236 ft 4 kts 251°
2026-04-22 19:23 50.87724 7.12745 236 ft 4 kts 283°
2026-04-22 19:23 50.87714 7.12777 236 ft 1 kts 317°
2026-04-22 19:23 50.87714 7.12778 236 ft 0 kts 317°
2026-04-22 19:25 50.87720 7.12769 236 ft 4 kts 317°
2026-04-22 19:26 50.87761 7.12741 236 ft 6 kts 18°
2026-04-22 19:26 50.87794 7.12813 237 ft 11 kts 65°
2026-04-22 19:26 50.87817 7.12935 242 ft 13 kts 76°
2026-04-22 19:26 50.87826 7.12990 244 ft 0 kts 76°
2026-04-22 19:30 50.87833 7.13040 246 ft 16 kts 76°
2026-04-22 19:30 50.87808 7.13253 252 ft 19 kts 135°
2026-04-22 19:30 50.87786 7.13287 252 ft 0 kts 135°
2026-04-22 19:31 50.87718 7.13387 252 ft 43 kts 137°
2026-04-22 19:32 50.87222 7.14104 261 ft 149 kts 137°
2026-04-22 19:32 50.86296 7.15468 837 ft 196 kts 132°
2026-04-22 19:32 50.85290 7.17080 1960 ft 206 kts 131°
2026-04-22 19:32 50.84273 7.18680 2767 ft 209 kts 134°
2026-04-22 19:33 50.83140 7.20188 3474 ft 216 kts 139°
2026-04-22 19:33 50.81963 7.21709 4215 ft 221 kts 139°
2026-04-22 19:33 50.80695 7.23141 4762 ft 227 kts 150°
2026-04-22 19:33 50.79159 7.23811 4980 ft 233 kts 172°
2026-04-22 19:34 50.77536 7.23629 5006 ft 238 kts 195°
2026-04-22 19:34 50.76132 7.22265 5185 ft 242 kts 225°
2026-04-22 19:34 50.75250 7.20010 5308 ft 242 kts 248°
2026-04-22 19:34 50.74991 7.17406 5324 ft 244 kts 275°
2026-04-22 19:35 50.75293 7.14628 5331 ft 266 kts 284°
2026-04-22 19:35 50.75721 7.11746 5324 ft 273 kts 284°
2026-04-22 19:35 50.76013 7.09767 5320 ft 274 kts 284°
2026-04-22 19:35 50.76576 7.05838 5322 ft 274 kts 283°
2026-04-22 19:36 50.76981 7.02936 5321 ft 274 kts 283°
2026-04-22 19:36 50.77388 6.99986 5325 ft 275 kts 283°
2026-04-22 19:36 50.77793 6.97021 5392 ft 276 kts 283°
2026-04-22 19:36 50.78199 6.94035 5902 ft 280 kts 283°
2026-04-22 19:37 50.78607 6.91024 6777 ft 280 kts 283°
2026-04-22 19:37 50.79014 6.88011 7516 ft 282 kts 283°
2026-04-22 19:37 50.79426 6.84957 8224 ft 286 kts 284°
2026-04-22 19:37 50.79843 6.81857 8949 ft 290 kts 284°
2026-04-22 19:38 50.80264 6.78722 9689 ft 293 kts 284°
2026-04-22 19:38 50.80690 6.75545 10428 ft 297 kts 284°
2026-04-22 19:38 50.81127 6.72282 10832 ft 312 kts 284°
2026-04-22 19:38 50.81590 6.68828 11122 ft 330 kts 284°
2026-04-22 19:39 50.82056 6.65242 11415 ft 346 kts 283°
2026-04-22 19:39 50.82354 6.61335 11798 ft 358 kts 276°
2026-04-22 19:39 50.82484 6.57375 12365 ft 364 kts 274°
2026-04-22 19:39 50.82534 6.53344 12897 ft 369 kts 273°
2026-04-22 19:40 50.82551 6.49272 13472 ft 373 kts 272°
2026-04-22 19:40 50.82563 6.45154 14050 ft 376 kts 273°
2026-04-22 19:40 50.82584 6.41001 14569 ft 379 kts 273°
2026-04-22 19:40 50.82614 6.36818 15115 ft 382 kts 274°
2026-04-22 19:41 50.82653 6.32600 15668 ft 385 kts 274°
2026-04-22 19:41 50.82696 6.28362 16226 ft 387 kts 274°
2026-04-22 19:41 50.82742 6.24089 16776 ft 390 kts 274°
2026-04-22 19:41 50.82786 6.19844 17317 ft 393 kts 274°
2026-04-22 19:42 50.82830 6.15516 17868 ft 396 kts 274°
2026-04-22 19:42 50.82872 6.11146 18424 ft 398 kts 274°
2026-04-22 19:42 50.82713 6.06736 18832 ft 407 kts 264°
2026-04-22 19:42 50.81884 6.02418 19280 ft 415 kts 246°
2026-04-22 19:43 50.78397 5.95080 20282 ft 422 kts 227°
2026-04-22 19:43 50.76319 5.91785 20752 ft 424 kts 224°
2026-04-22 19:43 50.74166 5.88572 21225 ft 427 kts 224°
2026-04-22 19:44 50.71993 5.85369 21695 ft 429 kts 224°
2026-04-22 19:44 50.69814 5.82128 22168 ft 431 kts 224°
2026-04-22 19:44 50.67638 5.78845 22606 ft 434 kts 224°
2026-04-22 19:44 50.65469 5.75530 23080 ft 436 kts 225°
2026-04-22 19:45 50.63298 5.72186 23534 ft 438 kts 225°
2026-04-22 19:45 50.61113 5.68808 23957 ft 441 kts 225°
2026-04-22 19:45 50.58919 5.65415 24339 ft 443 kts 225°
2026-04-22 19:45 50.56715 5.62010 24727 ft 445 kts 225°
2026-04-22 19:46 50.54496 5.58589 25099 ft 448 kts 225°
2026-04-22 19:46 50.52989 5.56270 25349 ft 450 kts 225°
2026-04-22 19:46 50.50745 5.52822 25764 ft 452 kts 225°
2026-04-22 19:46 50.48489 5.49363 26216 ft 454 kts 225°
2026-04-22 19:47 50.46222 5.45892 26667 ft 457 kts 226°
2026-04-22 19:47 50.43969 5.42447 27110 ft 460 kts 226°
2026-04-22 19:47 50.41641 5.38891 27579 ft 462 kts 226°
2026-04-22 19:47 50.39360 5.35415 28067 ft 465 kts 226°
2026-04-22 19:48 50.37032 5.31869 28558 ft 468 kts 226°
2026-04-22 19:48 50.34688 5.28306 29072 ft 471 kts 226°
2026-04-22 19:48 50.32326 5.24720 29566 ft 475 kts 226°
2026-04-22 19:48 50.29946 5.21112 30077 ft 478 kts 226°
2026-04-22 19:49 50.27551 5.17489 30542 ft 481 kts 226°
2026-04-22 19:49 50.25139 5.13843 30944 ft 484 kts 226°
2026-04-22 19:49 50.22708 5.10173 31361 ft 487 kts 226°
2026-04-22 19:49 50.20268 5.06496 31789 ft 489 kts 226°
2026-04-22 19:50 50.17810 5.02798 32168 ft 492 kts 227°
2026-04-22 19:50 50.15342 4.99092 32595 ft 493 kts 227°
2026-04-22 19:50 50.12864 4.95375 32979 ft 496 kts 227°
2026-04-22 19:50 50.10370 4.91639 33348 ft 498 kts 227°
2026-04-22 19:51 50.07869 4.87899 33716 ft 500 kts 227°
2026-04-22 19:51 50.05355 4.84145 34096 ft 502 kts 227°
2026-04-22 19:51 50.02826 4.80374 34439 ft 504 kts 227°
2026-04-22 19:51 50.00299 4.76613 34830 ft 503 kts 227°
2026-04-22 19:52 49.97777 4.72866 35202 ft 503 kts 227°
2026-04-22 19:52 49.95242 4.69105 35585 ft 503 kts 226°
2026-04-22 19:52 49.92712 4.65357 35931 ft 503 kts 226°
2026-04-22 19:52 49.90184 4.61616 36287 ft 503 kts 226°
2026-04-22 19:53 49.87650 4.57873 36637 ft 503 kts 226°
2026-04-22 19:53 49.85118 4.54140 37070 ft 501 kts 226°
2026-04-22 19:53 49.82596 4.50427 37466 ft 500 kts 226°
2026-04-22 19:53 49.80081 4.46730 37955 ft 497 kts 226°
2026-04-22 19:54 49.77574 4.43049 38315 ft 497 kts 226°
2026-04-22 19:54 49.75066 4.39370 38673 ft 497 kts 226°
2026-04-22 19:54 49.72560 4.35701 39004 ft 496 kts 226°
2026-04-22 19:54 49.70050 4.32031 39252 ft 497 kts 226°
2026-04-22 19:55 49.67539 4.28364 39499 ft 497 kts 226°
2026-04-22 19:55 49.65029 4.24708 39752 ft 496 kts 226°
2026-04-22 19:55 49.62519 4.21055 40038 ft 496 kts 226°
2026-04-22 19:55 49.60011 4.17411 40264 ft 496 kts 226°
2026-04-22 19:56 49.57500 4.13767 40477 ft 496 kts 226°
2026-04-22 19:56 49.54983 4.10120 40692 ft 496 kts 226°
2026-04-22 19:56 49.52468 4.06481 40911 ft 496 kts 226°
2026-04-22 19:56 49.49953 4.02849 41130 ft 496 kts 226°
2026-04-22 19:57 49.47430 3.99209 41293 ft 497 kts 225°
2026-04-22 19:57 49.44911 3.95581 41287 ft 497 kts 226°
2026-04-22 19:57 49.39861 3.88326 41277 ft 497 kts 226°
2026-04-22 19:58 49.34805 3.81084 41275 ft 497 kts 226°
2026-04-22 19:58 49.29750 3.73861 41275 ft 497 kts 225°
2026-04-22 20:00 49.12003 3.48674 41270 ft 496 kts 226°
2026-04-22 20:01 49.06939 3.41535 41271 ft 495 kts 226°
2026-04-22 20:01 49.01869 3.34409 41266 ft 495 kts 226°
2026-04-22 20:02 48.96807 3.27313 41265 ft 495 kts 226°
2026-04-22 20:02 48.91773 3.20277 41263 ft 495 kts 226°
2026-04-22 20:03 48.86702 3.13210 41256 ft 495 kts 226°
2026-04-22 20:03 48.81592 3.06108 41256 ft 495 kts 226°
2026-04-22 20:04 48.76522 2.99085 41247 ft 493 kts 226°
2026-04-22 20:04 48.71496 2.92140 41247 ft 492 kts 226°
2026-04-22 20:05 48.66436 2.85168 41241 ft 492 kts 226°
2026-04-22 20:05 48.61374 2.78212 41232 ft 492 kts 226°
2026-04-22 20:06 48.56305 2.71268 41238 ft 491 kts 226°
2026-04-22 20:06 48.51238 2.64347 41231 ft 491 kts 225°
2026-04-22 20:07 48.46135 2.57394 41208 ft 491 kts 225°
2026-04-22 20:07 48.41090 2.50541 41221 ft 492 kts 225°
2026-04-22 20:08 48.36008 2.43657 41232 ft 491 kts 226°
2026-04-22 20:08 48.30893 2.36839 41214 ft 493 kts 222°
2026-04-22 20:09 48.24977 2.31539 41208 ft 501 kts 204°
2026-04-22 20:09 48.18150 2.29184 41212 ft 508 kts 189°
2026-04-22 20:10 48.11088 2.28445 41207 ft 510 kts 185°
2026-04-22 20:10 48.04002 2.27985 41211 ft 510 kts 185°
2026-04-22 20:11 47.96922 2.27426 41209 ft 509 kts 186°
2026-04-22 20:11 47.89856 2.26778 41212 ft 508 kts 186°
2026-04-22 20:12 47.82799 2.26104 41210 ft 508 kts 187°
2026-04-22 20:12 47.76931 2.25545 41177 ft 508 kts 187°
2026-04-22 20:13 47.68700 2.24770 41177 ft 507 kts 187°
2026-04-22 20:13 47.61663 2.24110 41183 ft 507 kts 187°
2026-04-22 20:14 47.54630 2.23454 41174 ft 506 kts 187°
2026-04-22 20:14 47.47600 2.22799 41178 ft 506 kts 187°
2026-04-22 20:15 47.40566 2.22144 41173 ft 506 kts 187°
2026-04-22 20:15 47.33535 2.21492 41164 ft 506 kts 187°
2026-04-22 20:16 47.26498 2.20842 41162 ft 506 kts 187°
2026-04-22 20:16 47.19470 2.20194 41160 ft 506 kts 187°
2026-04-22 20:17 47.12439 2.19547 41154 ft 506 kts 187°
2026-04-22 20:17 47.05418 2.18877 41155 ft 506 kts 187°
2026-04-22 20:18 46.98450 2.18062 41159 ft 505 kts 188°
2026-04-22 20:18 46.91437 2.17215 41150 ft 506 kts 188°
2026-04-22 20:19 46.84425 2.16390 41151 ft 506 kts 188°
2026-04-22 20:19 46.77404 2.15581 41151 ft 506 kts 187°
2026-04-22 20:20 46.70388 2.14777 41151 ft 506 kts 187°
2026-04-22 20:20 46.63369 2.13975 41152 ft 506 kts 187°
2026-04-22 20:21 46.56353 2.13175 41151 ft 506 kts 187°
2026-04-22 20:21 46.49333 2.12375 41150 ft 506 kts 187°
2026-04-22 20:22 46.42384 2.10980 41153 ft 501 kts 197°
2026-04-22 20:22 46.35675 2.08298 41140 ft 500 kts 201°
2026-04-22 20:23 46.29042 2.05301 41140 ft 499 kts 201°
2026-04-22 20:23 46.22406 2.02293 41139 ft 500 kts 201°
2026-04-22 20:24 46.15770 1.99338 41135 ft 500 kts 201°
2026-04-22 20:24 46.09123 1.96410 41133 ft 499 kts 201°
2026-04-22 20:25 46.02475 1.93494 41134 ft 499 kts 201°
2026-04-22 20:25 45.95836 1.90587 41132 ft 499 kts 201°
2026-04-22 20:26 45.89197 1.87685 41120 ft 499 kts 201°
2026-04-22 20:26 45.82556 1.84790 41119 ft 499 kts 200°
2026-04-22 20:27 45.75915 1.81902 41111 ft 499 kts 200°
2026-04-22 20:27 45.69276 1.79022 41115 ft 499 kts 200°
2026-04-22 20:28 45.62627 1.76145 41111 ft 499 kts 200°
2026-04-22 20:28 45.56019 1.73293 41098 ft 499 kts 200°
2026-04-22 20:29 45.49372 1.70431 41101 ft 499 kts 200°
2026-04-22 20:29 45.42729 1.67578 41097 ft 499 kts 200°
2026-04-22 20:30 45.36085 1.64731 41085 ft 499 kts 201°
2026-04-22 20:30 45.29438 1.61890 41081 ft 499 kts 201°
2026-04-22 20:31 45.22795 1.59057 41078 ft 499 kts 200°
2026-04-22 20:31 45.16146 1.56230 41085 ft 499 kts 201°
2026-04-22 20:32 45.09504 1.53412 41070 ft 498 kts 201°
2026-04-22 20:32 45.02878 1.50609 41074 ft 495 kts 201°
2026-04-22 20:33 44.96290 1.47828 41063 ft 493 kts 201°
2026-04-22 20:33 44.89714 1.45056 41063 ft 493 kts 201°
2026-04-22 20:34 44.84250 1.42758 41064 ft 493 kts 201°
2026-04-22 20:34 44.77668 1.39998 41066 ft 493 kts 201°
2026-04-22 20:35 44.71092 1.37247 41069 ft 493 kts 201°
2026-04-22 20:35 44.64511 1.34501 41071 ft 493 kts 201°
2026-04-22 20:36 44.57930 1.31761 41071 ft 493 kts 201°
2026-04-22 20:36 44.51355 1.29029 41081 ft 493 kts 201°
2026-04-22 20:37 44.44769 1.26299 41084 ft 493 kts 201°
2026-04-22 20:37 44.38192 1.23580 41082 ft 493 kts 201°
2026-04-22 20:38 44.31620 1.20869 41082 ft 492 kts 201°
2026-04-22 20:38 44.25047 1.18164 41084 ft 492 kts 201°
2026-04-22 20:39 44.18476 1.15465 41085 ft 492 kts 201°
2026-04-22 20:39 44.11918 1.12780 41086 ft 490 kts 200°
2026-04-22 20:40 44.05387 1.10112 41091 ft 489 kts 200°
2026-04-22 20:40 43.98860 1.07450 41092 ft 489 kts 200°
2026-04-22 20:41 43.92336 1.04796 41092 ft 488 kts 200°
2026-04-22 20:41 43.85815 1.02149 41097 ft 488 kts 200°
2026-04-22 20:42 43.79295 0.99508 41104 ft 488 kts 200°
2026-04-22 20:42 43.72769 0.96871 41108 ft 488 kts 200°
2026-04-22 20:43 43.66285 0.94257 41109 ft 489 kts 200°
2026-04-22 20:43 43.59762 0.91633 41102 ft 488 kts 200°
2026-04-22 20:44 43.53235 0.89014 41104 ft 488 kts 200°
2026-04-22 20:44 43.46712 0.86402 41105 ft 488 kts 200°
2026-04-22 20:45 43.40180 0.83793 41105 ft 488 kts 200°
2026-04-22 20:45 43.33653 0.81192 41112 ft 488 kts 200°
2026-04-22 20:46 43.23862 0.77300 41113 ft 489 kts 200°
2026-04-22 20:46 43.17335 0.74712 41123 ft 488 kts 200°
2026-04-22 20:47 43.10821 0.72137 41107 ft 487 kts 200°
2026-04-22 20:47 43.04320 0.69572 41113 ft 487 kts 200°
2026-04-22 20:48 42.97817 0.67010 41123 ft 486 kts 200°
2026-04-22 20:48 42.91313 0.64454 41118 ft 486 kts 200°
2026-04-22 20:49 42.84809 0.61904 41108 ft 486 kts 200°
2026-04-22 20:49 42.78306 0.59361 41114 ft 486 kts 200°
2026-04-22 20:50 42.71802 0.56820 41117 ft 486 kts 199°
2026-04-22 20:50 42.65561 0.53452 41107 ft 482 kts 208°
2026-04-22 20:51 42.59524 0.49644 41090 ft 482 kts 209°
2026-04-22 20:51 42.53475 0.45742 41086 ft 481 kts 209°
2026-04-22 20:52 42.47426 0.41857 41077 ft 481 kts 208°
2026-04-22 20:52 42.41374 0.37996 41052 ft 481 kts 209°
2026-04-22 20:53 42.35326 0.34155 41047 ft 480 kts 208°
2026-04-22 20:53 42.29276 0.30321 41046 ft 480 kts 208°
2026-04-22 20:54 42.23230 0.26497 41040 ft 480 kts 208°
2026-04-22 20:54 42.17182 0.22678 41021 ft 480 kts 208°
2026-04-22 20:55 42.11126 0.18861 41023 ft 480 kts 208°
2026-04-22 20:55 42.04837 0.15768 41024 ft 486 kts 195°
2026-04-22 20:56 41.98128 0.14406 41009 ft 489 kts 189°
2026-04-22 20:56 41.91365 0.13416 41016 ft 489 kts 189°
2026-04-22 20:57 41.84592 0.12465 41021 ft 489 kts 189°
2026-04-22 20:57 41.77823 0.11480 41022 ft 489 kts 189°
2026-04-22 20:58 41.71056 0.10474 41021 ft 489 kts 189°
2026-04-22 20:58 41.64285 0.09465 41017 ft 489 kts 189°
2026-04-22 20:59 41.57560 0.08466 41010 ft 489 kts 189°
2026-04-22 20:59 41.50790 0.07464 41006 ft 489 kts 189°
2026-04-22 21:00 41.44023 0.06464 41010 ft 489 kts 189°
2026-04-22 21:00 41.37256 0.05466 41007 ft 489 kts 189°
2026-04-22 21:01 41.30484 0.04470 41006 ft 489 kts 189°
2026-04-22 21:01 41.23716 0.03477 41007 ft 489 kts 189°
2026-04-22 21:02 41.16949 0.02486 41007 ft 489 kts 189°
2026-04-22 21:02 41.10177 0.01495 41006 ft 489 kts 189°
2026-04-22 21:03 41.03406 0.00501 41012 ft 490 kts 189°
2026-04-22 21:03 40.96637 -0.00484 41011 ft 490 kts 189°
2026-04-22 21:04 40.89865 -0.01466 41008 ft 489 kts 189°
2026-04-22 21:04 40.83109 -0.02446 41020 ft 488 kts 189°
2026-04-22 21:05 40.76357 -0.03425 41021 ft 488 kts 189°
2026-04-22 21:05 40.69613 -0.04400 41037 ft 488 kts 189°
2026-04-22 21:06 40.62862 -0.05376 41046 ft 488 kts 189°
2026-04-22 21:06 40.56143 -0.06505 41059 ft 485 kts 195°
2026-04-22 21:07 40.49633 -0.08784 41053 ft 483 kts 199°
2026-04-22 21:07 40.43200 -0.11327 41055 ft 483 kts 200°
2026-04-22 21:08 40.36767 -0.13910 41051 ft 483 kts 200°
2026-04-22 21:08 40.30385 -0.16448 41051 ft 483 kts 200°
2026-04-22 21:09 40.23949 -0.18988 41046 ft 483 kts 200°
2026-04-22 21:09 40.17516 -0.21519 41056 ft 483 kts 200°
2026-04-22 21:10 40.11076 -0.24041 41059 ft 483 kts 199°
2026-04-22 21:10 40.04627 -0.26563 41067 ft 483 kts 199°
2026-04-22 21:11 39.98187 -0.29081 41064 ft 483 kts 200°
2026-04-22 21:11 39.91744 -0.31595 41054 ft 483 kts 199°
2026-04-22 21:12 39.85302 -0.34098 41052 ft 483 kts 199°
2026-04-22 21:12 39.78896 -0.36583 40487 ft 477 kts 200°
2026-04-22 21:13 39.75716 -0.37816 39814 ft 477 kts 199°
2026-04-22 21:13 39.72539 -0.39048 39158 ft 476 kts 199°
2026-04-22 21:13 39.69365 -0.40277 38490 ft 476 kts 199°
2026-04-22 21:13 39.66193 -0.41504 37673 ft 476 kts 199°
2026-04-22 21:14 39.63020 -0.42730 36833 ft 477 kts 199°
2026-04-22 21:14 39.59830 -0.43962 35997 ft 478 kts 199°
2026-04-22 21:14 39.56637 -0.45194 35150 ft 480 kts 199°
2026-04-22 21:14 39.53427 -0.46431 34246 ft 483 kts 199°
2026-04-22 21:15 39.50215 -0.47668 33254 ft 486 kts 199°
2026-04-22 21:15 39.46961 -0.48915 32245 ft 489 kts 199°
2026-04-22 21:15 39.43670 -0.50102 31236 ft 492 kts 198°
2026-04-22 21:15 39.40358 -0.51267 30238 ft 495 kts 198°
2026-04-22 21:16 39.37031 -0.52439 29233 ft 494 kts 198°
2026-04-22 21:16 39.33730 -0.53606 28415 ft 490 kts 198°
2026-04-22 21:16 39.30460 -0.54763 27681 ft 485 kts 198°
2026-04-22 21:16 39.27226 -0.55910 26969 ft 479 kts 198°
2026-04-22 21:17 39.24026 -0.57045 26267 ft 475 kts 198°
2026-04-22 21:17 39.20860 -0.58168 25584 ft 470 kts 198°
2026-04-22 21:17 39.17725 -0.59279 24907 ft 465 kts 199°
2026-04-22 21:17 39.14623 -0.60378 24235 ft 460 kts 199°
2026-04-22 21:18 39.11554 -0.61463 23538 ft 456 kts 199°
2026-04-22 21:18 39.08509 -0.62540 22836 ft 450 kts 199°
2026-04-22 21:18 39.05515 -0.63599 22110 ft 444 kts 198°
2026-04-22 21:18 39.02547 -0.64648 21357 ft 439 kts 198°
2026-04-22 21:19 38.99621 -0.65680 20653 ft 434 kts 198°
2026-04-22 21:19 38.96760 -0.66689 19982 ft 429 kts 198°
2026-04-22 21:19 38.93860 -0.67710 19271 ft 424 kts 198°
2026-04-22 21:19 38.91255 -0.68627 18648 ft 420 kts 198°
2026-04-22 21:20 38.88452 -0.69613 17922 ft 415 kts 198°
2026-04-22 21:20 38.85684 -0.70585 17162 ft 410 kts 198°
2026-04-22 21:20 38.82949 -0.71545 16491 ft 404 kts 197°
2026-04-22 21:20 38.80295 -0.72475 15825 ft 398 kts 197°
2026-04-22 21:21 38.77643 -0.73405 15158 ft 392 kts 197°
2026-04-22 21:21 38.75045 -0.74313 14740 ft 380 kts 197°
2026-04-22 21:21 38.72544 -0.75187 14471 ft 365 kts 197°
2026-04-22 21:21 38.70143 -0.76026 14220 ft 351 kts 197°
2026-04-22 21:22 38.67836 -0.76833 14003 ft 337 kts 197°
2026-04-22 21:22 38.65613 -0.77610 13793 ft 324 kts 197°
2026-04-22 21:22 38.63478 -0.78354 13540 ft 312 kts 197°
2026-04-22 21:22 38.61424 -0.79071 13343 ft 300 kts 197°
2026-04-22 21:23 38.59447 -0.79759 13151 ft 289 kts 197°
2026-04-22 21:23 38.57543 -0.80423 12977 ft 278 kts 197°
2026-04-22 21:23 38.55701 -0.81026 12772 ft 269 kts 193°
2026-04-22 21:23 38.53857 -0.81046 12560 ft 266 kts 171°
2026-04-22 21:24 38.52171 -0.80097 12271 ft 267 kts 150°
2026-04-22 21:24 38.50650 -0.78746 11877 ft 267 kts 147°
2026-04-22 21:24 38.49644 -0.77808 11440 ft 274 kts 147°
2026-04-22 21:24 38.48059 -0.76337 10555 ft 291 kts 147°
2026-04-22 21:25 38.46350 -0.74765 9339 ft 315 kts 147°
2026-04-22 21:25 38.44495 -0.73070 7848 ft 341 kts 146°
2026-04-22 21:25 38.42507 -0.71257 6533 ft 360 kts 146°
2026-04-22 21:25 38.40465 -0.69393 5655 ft 359 kts 146°
2026-04-22 21:26 38.38470 -0.67574 5192 ft 345 kts 146°
2026-04-22 21:26 38.36575 -0.65847 5036 ft 324 kts 146°
2026-04-22 21:26 38.34810 -0.64240 5012 ft 300 kts 146°
2026-04-22 21:26 38.33178 -0.62758 4989 ft 279 kts 146°
2026-04-22 21:27 38.31652 -0.61375 4984 ft 259 kts 146°
2026-04-22 21:27 38.30236 -0.60092 4991 ft 243 kts 146°
2026-04-22 21:27 38.28873 -0.58859 4997 ft 239 kts 146°
2026-04-22 21:27 38.27516 -0.57634 5000 ft 239 kts 146°
2026-04-22 21:28 38.26086 -0.56578 4996 ft 237 kts 161°
2026-04-22 21:28 38.24475 -0.56277 5002 ft 235 kts 180°
2026-04-22 21:28 38.22858 -0.56466 4577 ft 237 kts 194°
2026-04-22 21:28 38.21355 -0.57392 3893 ft 249 kts 220°
2026-04-22 21:29 38.20426 -0.59265 3329 ft 260 kts 255°
2026-04-22 21:29 38.20546 -0.61553 3057 ft 267 kts 290°
2026-04-22 21:29 38.21572 -0.63515 3001 ft 269 kts 314°
2026-04-22 21:29 38.23104 -0.64874 2998 ft 271 kts 335°
2026-04-22 21:30 38.24927 -0.65441 2999 ft 271 kts 356°
2026-04-22 21:30 38.26783 -0.65263 2993 ft 261 kts
2026-04-22 21:30 38.28486 -0.65428 2991 ft 241 kts 340°
2026-04-22 21:30 38.29832 -0.66510 2996 ft 222 kts 315°
2026-04-22 21:31 38.30776 -0.67955 2989 ft 205 kts 298°
2026-04-22 21:31 38.31419 -0.69539 2996 ft 200 kts 294°
2026-04-22 21:31 38.31995 -0.71148 2994 ft 199 kts 290°
2026-04-22 21:31 38.32122 -0.72871 3005 ft 196 kts 259°
2026-04-22 21:32 38.31759 -0.74640 3016 ft 225 kts 245°
2026-04-22 21:32 38.30673 -0.76228 3017 ft 252 kts 210°
2026-04-22 21:32 38.29038 -0.76726 2999 ft 237 kts 173°
2026-04-22 21:32 38.27632 -0.75889 2985 ft 220 kts 134°
2026-04-22 21:33 38.27056 -0.74188 2986 ft 212 kts 93°
2026-04-22 21:33 38.27309 -0.72360 2765 ft 210 kts 75°
2026-04-22 21:33 38.27675 -0.70562 2467 ft 208 kts 78°
2026-04-22 21:33 38.27925 -0.68806 2302 ft 195 kts 82°
2026-04-22 21:34 38.28087 -0.67128 2095 ft 187 kts 85°
2026-04-22 21:34 38.28191 -0.65527 1993 ft 174 kts 86°
2026-04-22 21:34 38.28263 -0.64031 1848 ft 165 kts 88°
2026-04-22 21:34 38.28317 -0.62582 1573 ft 163 kts 88°
2026-04-22 21:35 38.28435 -0.61137 1214 ft 165 kts 81°
2026-04-22 21:35 38.28565 -0.59698 869 ft 161 kts 87°
2026-04-22 21:35 38.28530 -0.58261 426 ft 162 kts 97°
2026-04-22 21:35 38.28369 -0.56858 143 ft 157 kts 99°
2026-04-22 21:36 38.28185 -0.55576 104 ft 119 kts 101°
2026-04-22 21:36 38.28122 -0.55015 90 ft 40 kts 87°
2026-04-22 21:36 38.28181 -0.54758 69 ft 23 kts 68°
2026-04-22 21:36 38.28234 -0.54734 71 ft 3 kts 308°
2026-04-22 21:37 38.28242 -0.54760 71 ft 5 kts 289°
2026-04-22 21:37 38.28256 -0.54829 70 ft 11 kts 281°
2026-04-22 21:37 38.28272 -0.54942 86 ft 15 kts 280°
2026-04-22 21:37 38.28293 -0.55090 88 ft 19 kts 280°
2026-04-22 21:38 38.28318 -0.55268 97 ft 22 kts 280°
2026-04-22 21:38 38.28345 -0.55468 101 ft 25 kts 279°
2026-04-22 21:38 38.28371 -0.55595 106 ft 10 kts 306°
2026-04-22 21:38 38.28446 -0.55605 104 ft 14 kts 15°
2026-04-22 21:39 38.28481 -0.55550 104 ft 0 kts 73°
2026-04-22 21:39 38.28493 -0.55531 103 ft 6 kts 42°
2026-04-22 21:39 38.28535 -0.55512 102 ft 5 kts 10°
2026-04-22 21:39 38.28553 -0.55508 101 ft 0 kts 11°
2026-04-22 21:40 38.28556 -0.55507 101 ft 0 kts 11°